Location: Waco, TX
(31.5480°N, 97.1670°W)
Time: 18:42:04
(UTC-06:00)

ISS - Pass Details

Date: 15 January 2019
Orbit: 404 x 410 km, 51.6° (Epoch: 24 January)

Event Time Altitude Azimuth Distance (km) Brightness Sun altitude
Rises 06:18:28 0° 301° (WNW) 2,336 - -14.8°
Reaches altitude 10° 06:20:50 10° 286° (WNW) 1,470 - -14.4°
Exits shadow 06:22:52 21° 250° (WSW) 962 -2.4 -13.9°
Maximum altitude 06:23:30 23° 232° (SW) 922 -2.4 -13.8°
Drops below altitude 10° 06:26:09 10° 177° (S) 1,460 -0.8 -13.3°
Sets 06:28:29 0° 162° (SSE) 2,315 0.5 -12.8°
